Location: Wien
(48.2082°N, 16.3738°E)
Time: 13:19:26
(UTC+02:00)

Tiros 1 despin weight - Pass Details

Date: 13 September 2024
Orbit: 573 x 615 km, 48.2° (Epoch: 06 October)

Event Time Altitude Azimuth Distance (km) Brightness Sun altitude
Rises 03:48:22 0° 195° (SSW) 2,862 - -25.3°
Reaches altitude 10° 03:51:33 10° 171° (S) 1,968 - -24.9°
Exits shadow 03:53:42 15° 143° (SE) 1,689 ? -24.6°
Maximum altitude 03:54:03 15° 137° (SE) 1,684 ? -24.5°
Drops below altitude 10° 03:56:34 10° 104° (ESE) 1,981 ? -24.2°
Sets 03:59:47 0° 80° (E) 2,892 ? -23.8°
